Regional Weather Roundup
Issued by NWS

Home | Current Version | Previous Version | Graphics & Text | Print | Product List | Glossary On
Versions: 1 2 3 4 5 6 7 8 9 10 11 12 13 14 15 16 17 18 19 20 21 22 23 24 25 26 27
000
ASUS45 KSLC 280610
RWRUT

UTAH REGIONAL WEATHER ROUNDUP
NATIONAL WEATHER SERVICE SALT LAKE CITY UT
1200 AM MDT WED JUN 28 2017

UTZ001>011-023>025-280700-

NORTHERN UTAH

CITY           SKY/WX    TMP DP  RH WIND       PRES   REMARKS
BRIGHAM CITY   CLEAR     76  30  18 CALM      29.88F
HILL AFB       CLEAR     71  36  28 E13       29.89F
LOGAN          CLEAR     66  44  45 S5        29.91S
OGDEN          CLEAR     75  33  21 NE8       29.87S
SALT LAKE CITY CLEAR     74  36  25 SW3       29.85S
TOOELE VALLEY  CLEAR     59  36  41 S5        29.88R
WENDOVER         N/A     76  25  15 CALM      29.87R
HEBER CITY     CLEAR     52  37  58 CALM      29.97S
WEST JORDAN    CLEAR     70  45  40 W5        29.89S

$$

UTZ011>015-024>027-280700-

CENTRAL/NORTHEAST UTAH

CITY           SKY/WX    TMP DP  RH WIND       PRES   REMARKS
PROVO AIRPORT  CLEAR     65  49  56 SE8       29.88F
MOAB/CANYONLAN PTCLDY    77  21  12 E6        29.80S
DELTA          CLEAR     70  30  23 N3        29.89R
PRICE          CLEAR     69  30  23 W5        29.95S
ROOSEVELT      CLEAR     59  36  41 SW8       29.94
VERNAL         CLEAR     60  31  33 CALM      29.93R

$$

UTZ013>016-019>022-027-280700-

SOUTHERN UTAH

CITY           SKY/WX    TMP DP  RH WIND       PRES   REMARKS
BRYCE CANYON   MOCLDY    61  20  20 W8        30.15S
CEDAR CITY     CLEAR     66  23  19 S7        29.98S
MILFORD        CLEAR     77  22  13 S12       29.91R
ST GEORGE      CLEAR     85  21   9 SE9       29.76F
HANKSVILLE     CLEAR     79  23  12 CALM      29.85R
BLANDING       CLEAR     60  19  20 NW9       30.02F

$$

REGIONAL REPORTS     COLORADO/ARIZONA

CITY           SKY/WX    TMP DP  RH WIND       PRES   REMARKS
CRAIG, CO      CLEAR     53  36  52 S5        30.03R
GRAND JUNCTION CLEAR     76  31  19 E3        29.86R
RIFLE, CO      CLOUDY    75  28  17 VRB3G23   29.92S
MONTROSE, CO   CLEAR     70  19  14 SE7       29.95S
CORTEZ, CO     CLEAR     57  25  29 E5        29.99R
COLORADO CITY    N/A     64  25  22 CALM      29.98S
PAGE, AZ       CLEAR     87  20   8 W5        29.87R
GRAND CANYON   CLEAR     57  14  18 CALM      30.13S
KINGMAN, AZ    CLEAR     73  13  10 SE9       29.86S
FLAGSTAFF, AZ  CLEAR     61   9  12 SW7       30.18R

$$

REGIONAL REPORTS    NEVADA/IDAHO/WYOMING

CITY           SKY/WX    TMP DP  RH WIND       PRES   REMARKS
LAS VEGAS, NV  CLEAR     94  21   7 SW12G21   29.71R
ELY, NY        CLEAR     60  11  14 W9        30.05R
ELKO, NV       CLEAR     60  38  43 CALM      29.95S
POCATELLO, ID  CLEAR     61  49  64 NE8       29.93R
BURLEY, ID     CLEAR     60  51  72 S7        29.86F
FORT BRIDGER,    N/A     62  31  31 W5        30.12S
EVANSTON, WY   CLEAR     57  32  38 E6        30.09S
ROCK SPRINGS,  CLEAR     59  33  37 E6        30.06S
KEMMERER, WY     N/A     54  34  47 CALM      30.10S

$$




USA.gov is the U.S. government's official web portal to all federal, state and local government web resources and services.